Starlink 4138

operational
NORAD ID: 53535 Int'l Des: 2022-101 Owner: SPXS Country: US Constellation: starlink
LEOCIRCULAR

About Starlink 4138

Description loading...

Live Position

Loading 3D Globe...

Upcoming Passes

Altitude History

Altitude vs Time

uPlot chart will show altitude changes over time

Two-Line Element Set

1 53535U 22101J 26022.42623632 .00003547 00000-0 24088-3 0 9991
2 53535 53.2165 281.8066 0000903 111.5293 248.5795 15.08828863189186
Epoch: Jan 22, 2026 • Age: 19 hours

Current Status

Altitude 540.0 km
Velocity 7.59 km/s
Sub-Earth Point 12.93°N, 84.81°E
Launch Date Aug 19, 2022
Age 3.4 years
Type internet

Technical Details

Classification Payload
Mass 300.00 kg
Dry Mass 290.00 kg
Total Mass 300.00 kg
Length 0.20 m
Diameter 2.80 m
Span 9.00 m
Shape Box + pan
Manufacturer SPXS
Bus Type Starlink
Phase Status In Orbit
Owner/State SPXS/US

Large Constellations

Loading constellations...